| time (UTC) | temp F | wind direction | speed knots | gust knots | rain 1hr in | rain 24hr in | rain mn in | humidity % | barometer mb |
| 20260510104500 | 63 | 95 | 0.9 | 1.7 | 0.00 | 0.00 | 0.00 | 93 | 1011.0 |
| 20260510104000 | 63 | 158 | 1.7 | 1.7 | 0.00 | 0.00 | 0.00 | 93 | 1011.0 |
| 20260510103500 | 63 | 97 | 0.9 | 2.6 | 0.00 | 0.00 | 0.00 | 93 | 1011.1 |
| 20260510103000 | 63 | 159 | 0.9 | 2.6 | 0.00 | 0.00 | 0.00 | 93 | 1011.0 |
| 20260510102500 | 63 | 199 | 2.6 | 2.6 | 0.00 | 0.00 | 0.00 | 93 | 1011.0 |
| 20260510102000 | 63 | 184 | 1.7 | 2.6 | 0.00 | 0.00 | 0.00 | 93 | 1010.9 |
| 20260510101500 | 63 | 206 | 1.7 | 2.6 | 0.00 | 0.00 | 0.00 | 93 | 1010.9 |
| 20260510101000 | 63 | 189 | 1.7 | 2.6 | 0.00 | 0.00 | 0.00 | 93 | 1010.8 |
| 20260510100500 | 63 | 195 | 2.6 | 2.6 | 0.00 | 0.00 | 0.00 | 93 | 1010.8 |
| 20260510100000 | 62 | 222 | 1.7 | 1.7 | 0.00 | 0.00 | 0.00 | 93 | 1010.8 |
| 20260510095500 | 62 | 235 | 0.9 | 2.6 | 0.00 | 0.00 | 0.00 | 93 | 1010.7 |
| 20260510095000 | 63 | 270 | 1.7 | 2.6 | 0.00 | 0.00 | 0.00 | 93 | 1010.8 |
| 20260510094500 | 63 | 291 | 1.7 | 3.5 | 0.00 | 0.00 | 0.00 | 93 | 1010.6 |
| 20260510094000 | 63 | 309 | 1.7 | 3.5 | 0.00 | 0.00 | 0.00 | 93 | 1010.5 |
| 20260510093500 | 63 | 308 | 2.6 | 3.5 | 0.00 | 0.00 | 0.00 | 93 | 1010.4 |
| 20260510093000 | 63 | 309 | 2.6 | 3.5 | 0.00 | 0.00 | 0.00 | 93 | 1010.2 |
| 20260510092500 | 63 | 307 | 2.6 | 2.6 | 0.00 | 0.00 | 0.00 | 93 | 1010.1 |
| 20260510092000 | 63 | 315 | 1.7 | 1.7 | 0.00 | 0.00 | 0.00 | 93 | 1009.9 |
| 20260510091500 | 63 | 303 | 1.7 | 1.7 | 0.00 | 0.00 | 0.00 | 93 | 1010.0 |
| 20260510091000 | 63 | 276 | 0.9 | 1.7 | 0.00 | 0.00 | 0.00 | 93 | 1009.9 |
| 20260510090500 | 63 | 236 | 1.7 | 1.7 | 0.00 | 0.00 | 0.00 | 92 | 1009.8 |
| 20260510090000 | 63 | 309 | 0.9 | 1.7 | 0.00 | 0.00 | 0.00 | 92 | 1009.7 |
| 20260510085500 | 63 | 295 | 1.7 | 1.7 | 0.00 | 0.00 | 0.00 | 92 | 1009.7 |
| 20260510085000 | 63 | 305 | 1.7 | 1.7 | 0.00 | 0.00 | 0.00 | 92 | 1009.5 |
| 20260510084500 | 64 | 342 | 0.9 | 1.7 | 0.00 | 0.00 | 0.00 | 92 | 1009.4 |
| 20260510084000 | 64 | 51 | 0.9 | 1.7 | 0.00 | 0.00 | 0.00 | 92 | 1009.5 |
| 20260510083500 | 64 | 32 | 1.7 | 1.7 | 0.00 | 0.00 | 0.00 | 92 | 1009.4 |
| 20260510083000 | 63 | 33 | 0.9 | 1.7 | 0.00 | 0.00 | 0.00 | 93 | 1009.3 |
| 20260510082500 | 63 | 1 | 0.0 | 1.7 | 0.00 | 0.00 | 0.00 | 92 | 1009.3 |
| 20260510082000 | 63 | 5 | 0.9 | 1.7 | 0.00 | 0.00 | 0.00 | 92 | 1009.2 |
| 20260510081500 | 63 | 130 | 1.7 | 1.7 | 0.00 | 0.00 | 0.00 | 92 | 1009.2 |
| 20260510081000 | 63 | 162 | 0.9 | 1.7 | 0.00 | 0.00 | 0.00 | 92 | 1009.3 |
| 20260510080500 | 63 | 211 | 0.9 | 1.7 | 0.00 | 0.00 | 0.00 | 92 | 1009.3 |
| 20260510080000 | 63 | 269 | 0.9 | 2.6 | 0.00 | 0.00 | 0.00 | 92 | 1009.3 |
| 20260510075500 | 63 | 208 | 0.9 | 2.6 | 0.00 | 0.00 | 0.00 | 91 | 1009.1 |
| 20260510075000 | 64 | 160 | 1.7 | 2.6 | 0.00 | 0.00 | 0.00 | 91 | 1009.0 |
| 20260510074500 | 64 | 151 | 1.7 | 1.7 | 0.00 | 0.00 | 0.00 | 91 | 1009.0 |
| 20260510074000 | 64 | 119 | 0.9 | 0.9 | 0.00 | 0.00 | 0.00 | 91 | 1009.0 |
| 20260510073500 | 64 | 71 | 0.9 | 1.7 | 0.00 | 0.00 | 0.00 | 91 | 1009.2 |
| 20260510073000 | 64 | 74 | 0.9 | 1.7 | 0.00 | 0.00 | 0.00 | 91 | 1009.2 |
| 20260510072500 | 64 | 121 | 0.9 | 0.9 | 0.00 | 0.00 | 0.00 | 90 | 1009.1 |
| 20260510072000 | 64 | 181 | 0.0 | 1.7 | 0.00 | 0.00 | 0.00 | 90 | 1009.2 |
| 20260510071500 | 64 | 180 | 0.9 | 1.7 | 0.00 | 0.00 | 0.00 | 90 | 1009.3 |
| 20260510071000 | 64 | 234 | 0.9 | 1.7 | 0.00 | 0.00 | 0.00 | 89 | 1009.4 |
| 20260510070500 | 65 | 217 | 0.9 | 1.7 | 0.00 | 0.00 | 0.00 | 89 | 1009.4 |
| 20260510070000 | 65 | 265 | 0.9 | 1.7 | 0.00 | 0.00 | 0.00 | 89 | 1009.5 |
| 20260510065500 | 65 | 264 | 0.9 | 1.7 | 0.00 | 0.00 | 0.00 | 88 | 1009.5 |
| 20260510065000 | 66 | 247 | 1.7 | 1.7 | 0.00 | 0.00 | 0.00 | 86 | 1009.4 |
| 20260510064500 | 66 | 270 | 0.9 | 1.7 | 0.00 | 0.00 | 0.00 | 85 | 1009.4 |
| 20260510064000 | 66 | 93 | 1.7 | 1.7 | 0.00 | 0.00 | 0.00 | 84 | 1009.3 |
| 20260510063500 | 67 | 97 | 0.9 | 1.7 | 0.00 | 0.00 | 0.00 | 84 | 1009.4 |
| 20260510063000 | 67 | 96 | 1.7 | 1.7 | 0.00 | 0.00 | 0.00 | 84 | 1009.4 |
| 20260510062500 | 66 | 85 | 0.9 | 1.7 | 0.00 | 0.00 | 0.00 | 85 | 1009.3 |
| 20260510062000 | 66 | 152 | 0.9 | 1.7 | 0.00 | 0.00 | 0.00 | 85 | 1009.3 |
| 20260510061500 | 66 | 166 | 1.7 | 1.7 | 0.00 | 0.00 | 0.00 | 85 | 1009.4 |
| 20260510061000 | 66 | 177 | 0.9 | 1.7 | 0.00 | 0.00 | 0.00 | 85 | 1009.3 |
| 20260510060500 | 66 | 177 | 0.9 | 1.7 | 0.00 | 0.00 | 0.00 | 85 | 1009.3 |
| 20260510060000 | 66 | 200 | 1.7 | 2.6 | 0.00 | 0.00 | 0.00 | 84 | 1009.2 |
| 20260510055500 | 67 | 211 | 1.7 | 2.6 | 0.00 | 0.00 | 0.00 | 84 | 1009.2 |
| 20260510055000 | 67 | 191 | 1.7 | 3.5 | 0.00 | 0.00 | 0.00 | 84 | 1009.1 |
| 20260510054500 | 67 | 184 | 1.7 | 3.5 | 0.00 | 0.00 | 0.00 | 84 | 1009.1 |
| 20260510054000 | 66 | 168 | 1.7 | 3.5 | 0.00 | 0.00 | 0.00 | 85 | 1009.0 |
| 20260510053500 | 66 | 143 | 1.7 | 1.7 | 0.00 | 0.00 | 0.00 | 85 | 1009.0 |
| 20260510053000 | 67 | 156 | 1.7 | 1.7 | 0.00 | 0.00 | 0.00 | 84 | 1009.0 |
| 20260510052500 | 67 | 156 | 1.7 | 1.7 | 0.00 | 0.00 | 0.00 | 85 | 1009.1 |
| 20260510052000 | 67 | 184 | 1.7 | 1.7 | 0.00 | 0.00 | 0.00 | 84 | 1009.1 |
| 20260510051500 | 67 | 209 | 1.7 | 2.6 | 0.00 | 0.00 | 0.00 | 85 | 1009.1 |
| 20260510051000 | 67 | 209 | 1.7 | 2.6 | 0.00 | 0.00 | 0.00 | 86 | 1009.1 |
| 20260510050500 | 67 | 230 | 2.6 | 2.6 | 0.00 | 0.00 | 0.00 | 86 | 1009.1 |
| 20260510050000 | 67 | 198 | 0.9 | 2.6 | 0.00 | 0.00 | 0.00 | 85 | 1009.0 |
| 20260510045500 | 67 | 173 | 1.7 | 2.6 | 0.00 | 0.00 | 0.00 | 85 | 1008.9 |
| 20260510045000 | 67 | 183 | 2.6 | 2.6 | 0.00 | 0.00 | 0.00 | 85 | 1009.0 |
| 20260510044500 | 67 | 207 | 1.7 | 2.6 | 0.00 | 0.00 | 0.00 | 85 | 1009.0 |
| 20260510044000 | 68 | 184 | 1.7 | 2.6 | 0.00 | 0.00 | 0.00 | 84 | 1009.0 |
| 20260510043500 | 68 | 158 | 1.7 | 2.6 | 0.00 | 0.00 | 0.00 | 83 | 1009.0 |
| 20260510043000 | 68 | 175 | 1.7 | 2.6 | 0.00 | 0.00 | 0.00 | 82 | 1009.0 |
| 20260510042500 | 68 | 196 | 1.7 | 2.6 | 0.00 | 0.00 | 0.00 | 83 | 1009.0 |
| 20260510042000 | 68 | 186 | 1.7 | 2.6 | 0.00 | 0.00 | 0.00 | 82 | 1009.0 |
| 20260510041500 | 68 | 187 | 1.7 | 2.6 | 0.00 | 0.00 | 0.00 | 83 | 1009.0 |
| 20260510041000 | 68 | 190 | 1.7 | 2.6 | 0.00 | 0.00 | 0.00 | 83 | 1009.0 |
| 20260510040500 | 69 | 193 | 2.6 | 2.6 | 0.00 | 0.00 | 0.00 | 82 | 1009.0 |
| 20260510040000 | 69 | 193 | 2.6 | 2.6 | 0.00 | 0.00 | 0.00 | 81 | 1009.0 |
| 20260510035500 | 69 | 200 | 2.6 | 2.6 | 0.00 | 0.00 | 0.00 | 81 | 1009.0 |
| 20260510035000 | 70 | 212 | 2.6 | 4.3 | 0.00 | 0.00 | 0.00 | 79 | 1009.0 |
| 20260510034500 | 71 | 195 | 2.6 | 4.3 | 0.00 | 0.00 | 0.00 | 75 | 1008.9 |
| 20260510034000 | 71 | 168 | 3.5 | 4.3 | 0.00 | 0.00 | 0.00 | 75 | 1008.9 |
| 20260510033500 | 71 | 157 | 3.5 | 3.5 | 0.00 | 0.00 | 0.00 | 75 | 1008.9 |
| 20260510033000 | 71 | 151 | 3.5 | 3.5 | 0.00 | 0.00 | 0.00 | 76 | 1008.9 |
| 20260510032500 | 71 | 158 | 1.7 | 3.5 | 0.00 | 0.00 | 0.00 | 75 | 1008.9 |
| 20260510032000 | 71 | 172 | 2.6 | 5.2 | 0.00 | 0.00 | 0.00 | 75 | 1008.9 |
| 20260510031500 | 72 | 174 | 3.5 | 5.2 | 0.00 | 0.00 | 0.00 | 74 | 1008.8 |
| 20260510031000 | 72 | 176 | 4.3 | 5.2 | 0.00 | 0.00 | 0.00 | 73 | 1008.8 |
| 20260510030500 | 72 | 171 | 4.3 | 5.2 | 0.00 | 0.00 | 0.00 | 74 | 1008.8 |
| 20260510030000 | 71 | 171 | 4.3 | 5.2 | 0.00 | 0.00 | 0.00 | 75 | 1008.8 |
| 20260510025500 | 72 | 183 | 3.5 | 5.2 | 0.00 | 0.00 | 0.00 | 76 | 1008.8 |
| 20260510025000 | 72 | 195 | 3.5 | 5.2 | 0.00 | 0.00 | 0.00 | 75 | 1008.7 |
| 20260510024500 | 72 | 185 | 5.2 | 7.0 | 0.00 | 0.00 | 0.00 | 73 | 1008.7 |
| 20260510024001 | 73 | 191 | 5.2 | 7.0 | 0.00 | 0.00 | 0.00 | 72 | 1008.7 |
| 20260510023500 | 73 | 172 | 6.1 | 7.8 | 0.00 | 0.00 | 0.00 | 72 | 1008.6 |
| 20260510023000 | 74 | 174 | 7.0 | 7.8 | 0.00 | 0.00 | 0.00 | 70 | 1008.5 |
| 20260510022500 | 74 | 173 | 5.2 | 8.7 | 0.00 | 0.00 | 0.00 | 71 | 1008.4 |
| 20260510022000 | 73 | 172 | 7.0 | 8.7 | 0.00 | 0.00 | 0.00 | 72 | 1008.3 |
| 20260510021500 | 72 | 155 | 3.5 | 4.3 | 0.00 | 0.00 | 0.00 | 77 | 1008.3 |
| 20260510021000 | 72 | 160 | 2.6 | 2.6 | 0.00 | 0.00 | 0.00 | 81 | 1008.3 |
| 20260510020500 | 72 | 170 | 1.7 | 1.7 | 0.00 | 0.00 | 0.00 | 81 | 1008.3 |
| 20260510020000 | 72 | 117 | 0.9 | 2.6 | 0.00 | 0.00 | 0.00 | 80 | 1008.2 |
| 20260510015500 | 72 | 153 | 1.7 | 2.6 | 0.00 | 0.00 | 0.00 | 79 | 1008.2 |
| 20260510015000 | 72 | 168 | 1.7 | 2.6 | 0.00 | 0.00 | 0.00 | 80 | 1008.1 |
| 20260510014500 | 73 | 201 | 1.7 | 3.5 | 0.00 | 0.00 | 0.00 | 79 | 1008.2 |
| 20260510014000 | 73 | 203 | 1.7 | 3.5 | 0.00 | 0.00 | 0.00 | 78 | 1008.1 |
| 20260510013500 | 73 | 186 | 2.6 | 3.5 | 0.00 | 0.00 | 0.00 | 76 | 1008.1 |
| 20260510013000 | 74 | 183 | 2.6 | 3.5 | 0.00 | 0.00 | 0.00 | 73 | 1008.1 |
| 20260510012500 | 74 | 195 | 2.6 | 3.5 | 0.00 | 0.00 | 0.00 | 72 | 1008.0 |
| 20260510012000 | 75 | 200 | 2.6 | 3.5 | 0.00 | 0.00 | 0.00 | 72 | 1007.9 |
| 20260510011500 | 76 | 174 | 2.6 | 4.3 | 0.00 | 0.00 | 0.00 | 66 | 1007.9 |
| 20260510011000 | 76 | 160 | 3.5 | 4.3 | 0.00 | 0.00 | 0.00 | 65 | 1007.8 |
| 20260510010500 | 76 | 157 | 3.5 | 4.3 | 0.00 | 0.00 | 0.00 | 66 | 1007.7 |
| 20260510010000 | 77 | 152 | 3.5 | 5.2 | 0.00 | 0.00 | 0.00 | 64 | 1007.7 |
| 20260510005500 | 77 | 154 | 4.3 | 5.2 | 0.00 | 0.00 | 0.00 | 63 | 1007.7 |
| 20260510005000 | 77 | 153 | 4.3 | 4.3 | 0.00 | 0.00 | 0.00 | 63 | 1007.6 |
| 20260510004500 | 77 | 163 | 2.6 | 6.1 | 0.00 | 0.00 | 0.00 | 63 | 1007.5 |
| 20260510004000 | 77 | 162 | 4.3 | 6.1 | 0.00 | 0.00 | 0.00 | 62 | 1007.5 |
| 20260510003500 | 78 | 174 | 3.5 | 5.2 | 0.00 | 0.00 | 0.00 | 64 | 1007.5 |
| 20260510003005 | 78 | 128 | 2.6 | 2.6 | 0.00 | 0.00 | 0.00 | 62 | 1007.4 |
| 20260510002001 | 79 | 60 | 1.7 | 2.6 | 0.00 | 0.00 | 0.00 | 60 | 1007.3 |
| 20260510001500 | 79 | 48 | 1.7 | 2.6 | 0.00 | 0.00 | 0.00 | 58 | 1007.3 |
| 20260510001000 | 79 | 50 | 1.7 | 4.3 | 0.00 | 0.00 | 0.00 | 55 | 1007.3 |
| 20260510000500 | 80 | 89 | 2.6 | 4.3 | 0.00 | 0.00 | 0.00 | 52 | 1007.3 |
| 20260510000000 | 80 | 84 | 2.6 | 4.3 | 0.00 | 0.00 | 0.00 | 52 | 1007.3 |
| 20260509235506 | 80 | 92 | 2.6 | 5.2 | 0.00 | 0.00 | 0.00 | 51 | 1007.3 |
| 20260509234500 | 80 | 102 | 2.6 | 5.2 | 0.00 | 0.00 | 0.00 | 52 | 1007.2 |
| 20260509234000 | 80 | 98 | 3.5 | 6.1 | 0.00 | 0.00 | 0.00 | 52 | 1007.2 |
| 20260509233500 | 80 | 124 | 2.6 | 6.1 | 0.00 | 0.00 | 0.00 | 53 | 1007.2 |
| 20260509233000 | 80 | 107 | 4.3 | 6.1 | 0.00 | 0.00 | 0.00 | 52 | 1007.2 |
| 20260509232500 | 80 | 140 | 1.7 | 7.0 | 0.00 | 0.00 | 0.00 | 49 | 1007.2 |
| 20260509232000 | 80 | 104 | 4.3 | 8.7 | 0.00 | 0.00 | 0.00 | 49 | 1007.2 |
| 20260509231500 | 81 | 115 | 4.3 | 9.6 | 0.00 | 0.00 | 0.00 | 53 | 1007.2 |
| 20260509231000 | 81 | 138 | 4.3 | 9.6 | 0.00 | 0.00 | 0.00 | 53 | 1007.2 |
| 20260509230500 | 80 | 119 | 3.5 | 7.8 | 0.00 | 0.00 | 0.00 | 54 | 1007.2 |
| 20260509230000 | 81 | 88 | 3.5 | 7.8 | 0.00 | 0.00 | 0.00 | 50 | 1007.3 |
| 20260509225500 | 82 | 109 | 2.6 | 5.2 | 0.00 | 0.00 | 0.00 | 50 | 1007.3 |
| 20260509225000 | 82 | 312 | 0.9 | 2.6 | 0.00 | 0.00 | 0.00 | 46 | 1007.3 |
| 20260509224500 | 81 | 350 | 0.9 | 2.6 | 0.00 | 0.00 | 0.00 | 47 | 1007.3 |
| 20260509224000 | 81 | 37 | 1.7 | 2.6 | 0.00 | 0.00 | 0.00 | 47 | 1007.2 |
| 20260509223500 | 81 | 46 | 2.6 | 3.5 | 0.00 | 0.00 | 0.00 | 50 | 1007.2 |
| 20260509223000 | 81 | 11 | 2.6 | 3.5 | 0.00 | 0.00 | 0.00 | 48 | 1007.1 |
| 20260509222500 | 81 | 299 | 2.6 | 4.3 | 0.00 | 0.00 | 0.00 | 50 | 1007.0 |
| 20260509222000 | 80 | 20 | 3.5 | 5.2 | 0.00 | 0.00 | 0.00 | 47 | 1007.0 |
| 20260509221500 | 81 | 27 | 2.6 | 5.2 | 0.00 | 0.00 | 0.00 | 48 | 1007.0 |
| 20260509221000 | 81 | 58 | 2.6 | 5.2 | 0.00 | 0.00 | 0.00 | 51 | 1007.0 |
| 20260509220500 | 81 | 198 | 1.7 | 4.3 | 0.00 | 0.00 | 0.00 | 49 | 1006.9 |
| 20260509220000 | 81 | 352 | 3.5 | 5.2 | 0.00 | 0.00 | 0.00 | 48 | 1007.0 |
| 20260509215500 | 81 | 96 | 2.6 | 5.2 | 0.00 | 0.00 | 0.00 | 50 | 1007.0 |
| 20260509215000 | 81 | 153 | 0.0 | 3.5 | 0.00 | 0.00 | 0.00 | 52 | 1007.1 |
| 20260509214500 | 81 | 290 | 2.6 | 5.2 | 0.00 | 0.00 | 0.00 | 49 | 1007.1 |
| 20260509214000 | 80 | 78 | 2.6 | 5.2 | 0.00 | 0.00 | 0.00 | 50 | 1007.0 |
| 20260509213500 | 81 | 88 | 3.5 | 5.2 | 0.00 | 0.00 | 0.00 | 49 | 1007.1 |
| 20260509213000 | 81 | 255 | 1.7 | 5.2 | 0.00 | 0.00 | 0.00 | 49 | 1007.1 |
| 20260509212500 | 81 | 226 | 2.6 | 5.2 | 0.00 | 0.00 | 0.00 | 49 | 1007.3 |
| 20260509212000 | 81 | 214 | 2.6 | 5.2 | 0.00 | 0.00 | 0.00 | 51 | 1007.3 |
| 20260509211500 | 81 | 235 | 1.7 | 5.2 | 0.00 | 0.00 | 0.00 | 50 | 1007.3 |
| 20260509211000 | 81 | 86 | 0.9 | 6.1 | 0.00 | 0.00 | 0.00 | 55 | 1007.4 |
| 20260509210500 | 81 | 117 | 0.9 | 6.1 | 0.00 | 0.00 | 0.00 | 51 | 1007.5 |
| 20260509210000 | 81 | 68 | 3.5 | 5.2 | 0.00 | 0.00 | 0.00 | 51 | 1007.6 |
| 20260509205500 | 81 | 192 | 1.7 | 5.2 | 0.00 | 0.00 | 0.00 | 49 | 1007.7 |
| 20260509205000 | 81 | 271 | 2.6 | 5.2 | 0.00 | 0.00 | 0.00 | 49 | 1007.7 |
| 20260509204500 | 81 | 80 | 0.9 | 5.2 | 0.00 | 0.00 | 0.00 | 53 | 1007.8 |
| 20260509204000 | 80 | 356 | 2.6 | 7.0 | 0.00 | 0.00 | 0.00 | 49 | 1007.7 |
| 20260509203500 | 80 | 285 | 1.7 | 7.0 | 0.00 | 0.00 | 0.00 | 51 | 1007.8 |
| 20260509203000 | 80 | 135 | 2.6 | 6.1 | 0.00 | 0.00 | 0.00 | 52 | 1007.8 |
| 20260509202500 | 80 | 330 | 2.6 | 6.1 | 0.00 | 0.00 | 0.00 | 49 | 1007.8 |
| 20260509202000 | 81 | 138 | 3.5 | 6.1 | 0.00 | 0.00 | 0.00 | 55 | 1007.9 |
| 20260509201500 | 80 | 245 | 2.6 | 6.1 | 0.00 | 0.00 | 0.00 | 52 | 1007.9 |
| 20260509201000 | 80 | 230 | 3.5 | 5.2 | 0.00 | 0.00 | 0.00 | 52 | 1007.9 |
| 20260509200500 | 80 | 213 | 3.5 | 5.2 | 0.00 | 0.00 | 0.00 | 52 | 1007.9 |
| 20260509200000 | 79 | 164 | 2.6 | 7.8 | 0.00 | 0.00 | 0.00 | 52 | 1007.9 |
| 20260509195500 | 80 | 141 | 4.3 | 7.8 | 0.00 | 0.00 | 0.00 | 55 | 1008.0 |
| 20260509195000 | 79 | 38 | 4.3 | 5.2 | 0.00 | 0.00 | 0.00 | 54 | 1008.0 |
| 20260509194500 | 79 | 135 | 1.7 | 6.1 | 0.00 | 0.00 | 0.00 | 52 | 1008.1 |
| 20260509194000 | 79 | 112 | 4.3 | 6.1 | 0.00 | 0.00 | 0.00 | 54 | 1008.1 |
| 20260509193500 | 79 | 138 | 5.2 | 7.8 | 0.00 | 0.00 | 0.00 | 57 | 1008.2 |
| 20260509193000 | 79 | 122 | 3.5 | 7.8 | 0.00 | 0.00 | 0.00 | 59 | 1008.2 |
| 20260509192500 | 79 | 94 | 7.8 | 10.4 | 0.00 | 0.00 | 0.00 | 56 | 1008.3 |
| 20260509192000 | 79 | 93 | 5.2 | 10.4 | 0.00 | 0.00 | 0.00 | 59 | 1008.4 |
| 20260509191500 | 79 | 97 | 0.9 | 7.0 | 0.00 | 0.00 | 0.00 | 54 | 1008.4 |
| 20260509191000 | 79 | 101 | 3.5 | 7.0 | 0.00 | 0.00 | 0.00 | 57 | 1008.4 |
| 20260509190500 | 78 | 69 | 2.6 | 7.0 | 0.00 | 0.00 | 0.00 | 58 | 1008.4 |
| 20260509190000 | 79 | 80 | 3.5 | 6.1 | 0.00 | 0.00 | 0.00 | 55 | 1008.4 |
| 20260509185500 | 80 | 206 | 3.5 | 6.1 | 0.00 | 0.00 | 0.00 | 58 | 1008.4 |
| 20260509185000 | 79 | 71 | 1.7 | 7.8 | 0.00 | 0.00 | 0.00 | 64 | 1008.4 |
| 20260509184500 | 78 | 99 | 6.1 | 9.6 | 0.00 | 0.00 | 0.00 | 60 | 1008.4 |
| 20260509184000 | 79 | 67 | 4.3 | 9.6 | 0.00 | 0.00 | 0.00 | 63 | 1008.5 |
| 20260509183500 | 78 | 221 | 0.0 | 7.0 | 0.00 | 0.00 | 0.00 | 57 | 1008.6 |
| 20260509183000 | 79 | 190 | 0.9 | 8.7 | 0.00 | 0.00 | 0.00 | 58 | 1008.5 |
| 20260509182500 | 78 | 74 | 0.9 | 8.7 | 0.00 | 0.00 | 0.00 | 56 | 1008.5 |
| 20260509182000 | 78 | 299 | 1.7 | 7.8 | 0.00 | 0.00 | 0.00 | 55 | 1008.5 |
| 20260509181500 | 78 | 50 | 5.2 | 5.2 | 0.00 | 0.00 | 0.00 | 57 | 1008.5 |
| 20260509181000 | 78 | 46 | 0.9 | 5.2 | 0.00 | 0.00 | 0.00 | 61 | 1008.5 |
| 20260509180500 | 77 | 352 | 1.7 | 6.1 | 0.00 | 0.00 | 0.00 | 61 | 1008.4 |
| 20260509180000 | 77 | 56 | 5.2 | 6.1 | 0.00 | 0.00 | 0.00 | 60 | 1008.3 |
| 20260509175500 | 77 | 340 | 5.2 | 7.0 | 0.00 | 0.00 | 0.00 | 59 | 1008.3 |
| 20260509175000 | 77 | 321 | 5.2 | 7.0 | 0.00 | 0.00 | 0.00 | 60 | 1008.4 |
| 20260509174500 | 77 | 20 | 1.7 | 7.8 | 0.00 | 0.00 | 0.00 | 62 | 1008.5 |
| 20260509174000 | 77 | 106 | 4.3 | 7.8 | 0.00 | 0.00 | 0.00 | 60 | 1008.5 |
| 20260509173500 | 77 | 102 | 3.5 | 5.2 | 0.00 | 0.00 | 0.00 | 62 | 1008.6 |
| 20260509173000 | 77 | 228 | 0.0 | 6.1 | 0.00 | 0.00 | 0.00 | 60 | 1008.7 |
| 20260509172500 | 77 | 305 | 0.9 | 6.1 | 0.00 | 0.00 | 0.00 | 59 | 1008.6 |
| 20260509172000 | 77 | 126 | 1.7 | 6.1 | 0.00 | 0.00 | 0.00 | 60 | 1008.6 |
| 20260509171500 | 77 | 41 | 5.2 | 5.2 | 0.00 | 0.00 | 0.00 | 62 | 1008.7 |
| 20260509171000 | 77 | 186 | 0.9 | 7.8 | 0.00 | 0.00 | 0.00 | 59 | 1008.7 |
| 20260509170500 | 76 | 273 | 1.7 | 7.8 | 0.00 | 0.00 | 0.00 | 62 | 1008.6 |
| 20260509170001 | 76 | 95 | 2.6 | 8.7 | 0.00 | 0.00 | 0.00 | 63 | 1008.7 |
| 20260509165500 | 76 | 99 | 5.2 | 8.7 | 0.00 | 0.00 | 0.00 | 63 | 1008.8 |
| 20260509165000 | 76 | 293 | 0.9 | 7.0 | 0.00 | 0.00 | 0.00 | 60 | 1008.8 |
| 20260509164500 | 76 | 70 | 4.3 | 5.2 | 0.00 | 0.00 | 0.00 | 64 | 1008.8 |
| 20260509164001 | 76 | 269 | 0.9 | 3.5 | 0.00 | 0.00 | 0.00 | 60 | 1008.8 |
| 20260509163500 | 76 | 283 | 0.9 | 4.3 | 0.00 | 0.00 | 0.00 | 63 | 1008.7 |
| 20260509163000 | 75 | 248 | 1.7 | 4.3 | 0.00 | 0.00 | 0.00 | 61 | 1008.8 |
| 20260509162500 | 75 | 239 | 3.5 | 4.3 | 0.00 | 0.00 | 0.00 | 66 | 1008.8 |
| 20260509162000 | 75 | 267 | 1.7 | 5.2 | 0.00 | 0.00 | 0.00 | 63 | 1008.8 |
| 20260509161500 | 74 | 329 | 3.5 | 5.2 | 0.00 | 0.00 | 0.00 | 64 | 1008.7 |
| 20260509161000 | 74 | 46 | 0.9 | 5.2 | 0.00 | 0.00 | 0.00 | 66 | 1008.6 |
| 20260509160500 | 74 | 30 | 0.9 | 6.1 | 0.00 | 0.00 | 0.00 | 66 | 1008.5 |
| 20260509160000 | 73 | 301 | 2.6 | 6.1 | 0.00 | 0.00 | 0.00 | 67 | 1008.4 |
| 20260509155500 | 74 | 331 | 3.5 | 7.8 | 0.00 | 0.00 | 0.00 | 69 | 1008.4 |
| 20260509155000 | 73 | 327 | 5.2 | 7.8 | 0.00 | 0.00 | 0.00 | 66 | 1008.4 |
| 20260509154500 | 73 | 337 | 5.2 | 7.8 | 0.00 | 0.00 | 0.00 | 69 | 1008.3 |
| 20260509154000 | 73 | 353 | 0.9 | 7.8 | 0.00 | 0.00 | 0.00 | 66 | 1008.3 |
| 20260509153500 | 73 | 344 | 7.8 | 7.8 | 0.00 | 0.00 | 0.00 | 67 | 1008.2 |
| 20260509153000 | 72 | 358 | 5.2 | 7.0 | 0.00 | 0.00 | 0.00 | 71 | 1008.3 |
| 20260509152500 | 72 | 304 | 3.5 | 5.2 | 0.00 | 0.00 | 0.00 | 67 | 1008.2 |
| 20260509152000 | 72 | 325 | 5.2 | 6.1 | 0.00 | 0.00 | 0.00 | 69 | 1008.2 |
| 20260509151500 | 72 | 13 | 4.3 | 6.1 | 0.00 | 0.00 | 0.00 | 70 | 1008.3 |
| 20260509151000 | 72 | 350 | 5.2 | 5.2 | 0.00 | 0.00 | 0.00 | 72 | 1008.3 |
| 20260509150500 | 71 | 291 | 3.5 | 4.3 | 0.00 | 0.00 | 0.00 | 72 | 1008.3 |
| 20260509150000 | 71 | 295 | 0.9 | 3.5 | 0.00 | 0.00 | 0.00 | 72 | 1008.3 |
| 20260509145500 | 71 | 271 | 1.7 | 4.3 | 0.00 | 0.00 | 0.00 | 73 | 1008.3 |
| 20260509145000 | 71 | 298 | 0.9 | 4.3 | 0.00 | 0.00 | 0.00 | 73 | 1008.4 |
| 20260509144500 | 71 | 3 | 1.7 | 3.5 | 0.00 | 0.00 | 0.00 | 73 | 1008.4 |
| 20260509144000 | 70 | 195 | 1.7 | 3.5 | 0.00 | 0.00 | 0.00 | 73 | 1008.4 |
| 20260509143500 | 70 | 263 | 0.9 | 1.7 | 0.00 | 0.00 | 0.00 | 73 | 1008.4 |
| 20260509143000 | 70 | 269 | 1.7 | 2.6 | 0.00 | 0.00 | 0.00 | 75 | 1008.3 |
| 20260509142500 | 70 | 167 | 0.9 | 2.6 | 0.00 | 0.00 | 0.00 | 77 | 1008.3 |
| 20260509142000 | 69 | 199 | 0.9 | 2.6 | 0.00 | 0.00 | 0.00 | 76 | 1008.3 |
| 20260509141500 | 69 | 188 | 1.7 | 2.6 | 0.00 | 0.00 | 0.00 | 78 | 1008.3 |
| 20260509141000 | 70 | 165 | 1.7 | 2.6 | 0.00 | 0.00 | 0.00 | 77 | 1008.4 |
| 20260509140500 | 69 | 190 | 1.7 | 2.6 | 0.00 | 0.00 | 0.00 | 79 | 1008.4 |
| 20260509140000 | 69 | 43 | 0.9 | 2.6 | 0.00 | 0.00 | 0.00 | 78 | 1008.4 |
| 20260509135500 | 68 | 27 | 0.9 | 2.6 | 0.00 | 0.00 | 0.00 | 82 | 1008.3 |
| 20260509135000 | 67 | 214 | 1.7 | 2.6 | 0.00 | 0.00 | 0.00 | 83 | 1008.3 |
| 20260509134500 | 67 | 203 | 0.9 | 2.6 | 0.00 | 0.00 | 0.00 | 82 | 1008.3 |
| 20260509134000 | 67 | 179 | 1.7 | 3.5 | 0.00 | 0.00 | 0.00 | 82 | 1008.3 |
| 20260509133500 | 66 | 220 | 1.7 | 3.5 | 0.00 | 0.00 | 0.00 | 84 | 1008.3 |
| 20260509133000 | 66 | 167 | 2.6 | 3.5 | 0.00 | 0.00 | 0.00 | 85 | 1008.3 |
| 20260509132500 | 66 | 171 | 1.7 | 3.5 | 0.00 | 0.00 | 0.00 | 85 | 1008.2 |
| 20260509132000 | 65 | 170 | 2.6 | 3.5 | 0.00 | 0.00 | 0.00 | 85 | 1008.2 |
| 20260509131500 | 65 | 155 | 2.6 | 3.5 | 0.00 | 0.00 | 0.00 | 87 | 1008.1 |
| 20260509131000 | 64 | 193 | 3.5 | 3.5 | 0.00 | 0.00 | 0.00 | 89 | 1008.1 |
| 20260509130500 | 64 | 176 | 1.7 | 2.6 | 0.00 | 0.00 | 0.00 | 91 | 1008.0 |
| 20260509130000 | 63 | 196 | 2.6 | 3.5 | 0.00 | 0.00 | 0.00 | 91 | 1007.9 |
| 20260509125500 | 63 | 155 | 2.6 | 3.5 | 0.00 | 0.00 | 0.00 | 93 | 1007.9 |
| 20260509125000 | 62 | 147 | 2.6 | 3.5 | 0.00 | 0.00 | 0.00 | 93 | 1007.8 |
| 20260509124500 | 62 | 145 | 1.7 | 2.6 | 0.00 | 0.00 | 0.00 | 94 | 1007.8 |
| 20260509124000 | 62 | 127 | 0.9 | 1.7 | 0.00 | 0.00 | 0.00 | 94 | 1007.7 |
| 20260509123500 | 61 | 104 | 0.9 | 3.5 | 0.00 | 0.00 | 0.00 | 95 | 1007.7 |
| 20260509123000 | 61 | 163 | 0.9 | 3.5 | 0.00 | 0.00 | 0.00 | 94 | 1007.6 |
| 20260509122500 | 60 | 194 | 2.6 | 3.5 | 0.00 | 0.00 | 0.00 | 94 | 1007.6 |
| 20260509122000 | 60 | 202 | 1.7 | 4.3 | 0.00 | 0.00 | 0.00 | 94 | 1007.6 |
| 20260509121500 | 60 | 200 | 3.5 | 4.3 | 0.00 | 0.00 | 0.00 | 95 | 1007.6 |
| 20260509121000 | 59 | 193 | 4.3 | 4.3 | 0.00 | 0.00 | 0.00 | 95 | 1007.5 |
| 20260509120500 | 59 | 183 | 3.5 | 4.3 | 0.00 | 0.00 | 0.00 | 94 | 1007.4 |
| 20260509120000 | 59 | 190 | 2.6 | 2.6 | 0.00 | 0.00 | 0.00 | 94 | 1007.3 |
| 20260509115500 | 59 | 157 | 1.7 | 3.5 | 0.00 | 0.00 | 0.00 | 94 | 1007.2 |
| 20260509115000 | 58 | 176 | 1.7 | 4.3 | 0.00 | 0.00 | 0.00 | 94 | 1007.2 |
| 20260509114500 | 58 | 179 | 2.6 | 4.3 | 0.00 | 0.00 | 0.00 | 94 | 1007.2 |
| 20260509114000 | 58 | 160 | 3.5 | 4.3 | 0.00 | 0.00 | 0.00 | 94 | 1007.1 |
| 20260509113500 | 58 | 186 | 3.5 | 5.2 | 0.00 | 0.00 | 0.00 | 94 | 1007.1 |
| 20260509113000 | 58 | 188 | 4.3 | 5.2 | 0.00 | 0.00 | 0.00 | 94 | 1007.0 |
| 20260509112500 | 58 | 180 | 2.6 | 5.2 | 0.00 | 0.00 | 0.00 | 93 | 1006.9 |
| 20260509112000 | 58 | 193 | 3.5 | 5.2 | 0.00 | 0.00 | 0.00 | 93 | 1006.9 |
| 20260509111500 | 58 | 192 | 4.3 | 5.2 | 0.00 | 0.00 | 0.00 | 93 | 1006.7 |
| 20260509111000 | 58 | 194 | 4.3 | 4.3 | 0.00 | 0.00 | 0.00 | 93 | 1006.4 |
| 20260509110501 | 59 | 220 | 1.7 | 2.6 | 0.00 | 0.00 | 0.00 | 93 | 1006.2 |
| 20260509110000 | 59 | 265 | 0.9 | 2.6 | 0.00 | 0.00 | 0.00 | 93 | 1006.1 |
| 20260509105500 | 59 | 307 | 1.7 | 1.7 | 0.00 | 0.00 | 0.00 | 92 | 1006.0 |
| 20260509105000 | 59 | 256 | 0.9 | 1.7 | 0.00 | 0.00 | 0.00 | 92 | 1005.9 |